GW5208 Weather Reports


time (UTC)temp
C
wind
direction
speed
KPH
gust
KPH
rain 1hr
cm
rain 24hr
cm
rain mn
cm
humidity
%
barometer
mb
20260906234512 17 330 0.0 0.0 0.00 1.14 0.46 75 1016.8
20260906233019 17 323 0.0 0.0 0.00 1.14 0.46 73 1016.7
20260906231504 17 311 0.0 0.0 0.00 1.14 0.46 75 1016.6
20260906230005 16 317 0.0 0.0 0.00 1.14 0.46 76 1016.8
20260906224510 16 335 0.0 0.0 0.00 1.14 0.46 77 1017.2
20260906223016 16 294 0.0 0.0 0.00 1.14 0.46 79 1017.2
20260906221530 15 257 0.0 0.0 0.00 1.14 0.46 81 1017.4
20260906220003 15 306 0.0 0.0 0.00 1.14 0.46 81 1017.7
20260906214510 15 276 0.0 0.0 0.00 1.14 0.46 81 1017.7
20260906213016 15 278 0.0 0.0 0.00 1.14 0.46 82 1017.6
20260906211523 15 281 0.0 0.0 0.00 1.14 0.46 80 1017.5
20260906210025 16 276 0.0 0.0 0.00 1.14 0.46 79 1017.5
20260906204506 16 229 0.0 0.0 0.00 1.14 0.46 79 1017.5
20260906203010 15 229 0.0 0.0 0.00 1.14 0.46 80 1017.5
20260906201518 15 214 0.0 0.0 0.00 1.14 0.46 80 1017.7
20260906200026 15 213 0.0 0.0 0.00 1.14 0.46 80 1017.7
20260906194531 16 167 0.0 0.0 0.00 1.14 0.46 80 1017.7
20260906193012 15 166 0.0 0.0 0.00 1.14 0.46 81 1017.7
20260906191516 15 45 0.0 0.0 0.00 1.14 0.46 81 1018.0
20260906190029 15 65 0.0 0.0 0.00 1.14 0.46 80 1018.2
20260906184530 15 67 0.0 0.0 0.00 1.14 0.46 81 1018.3
20260906183042 15 70 0.0 0.0 0.00 1.14 0.46 81 1018.4
20260906181518 15 69 0.0 0.0 0.00 1.14 0.46 83 1018.3
20260906180022 14 63 0.0 6.4 0.00 1.14 0.46 84 1018.0
20260906174527 13 75 0.0 0.0 0.00 1.14 0.46 84 1018.4
20260906173032 13 71 0.0 0.0 0.00 1.14 0.46 82 1018.9
20260906171517 13 59 0.0 0.0 0.00 1.14 0.46 83 1019.0
20260906170011 13 1 0.0 0.0 0.00 1.14 0.46 84 1019.4
20260906164505 12 51 0.0 0.0 0.00 1.14 0.46 90 1018.9
20260906163005 12 60 0.0 0.0 0.00 1.14 0.46 91 1019.8
20260906161513 12 336 0.0 0.0 0.00 1.14 0.46 91 1020.2
20260906160016 12 354 0.0 0.0 0.00 1.14 0.46 91 1020.3
20260906154510 12 77 0.0 0.0 0.00 1.14 0.46 91 1019.9
20260906153004 11 328 0.0 0.0 0.00 1.14 0.46 91 1020.2
20260906151508 11 323 0.0 0.0 0.03 1.17 0.46 92 1020.4
20260906150014 11 297 0.0 0.0 0.05 1.17 0.46 92 1020.4
20260906144525 11 335 0.0 0.0 0.28 1.17 0.46 92 1020.3
20260906143004 11 347 0.0 0.0 0.28 1.17 0.46 92 1020.4
20260906141507 11 335 0.0 0.0 0.25 1.17 0.43 92 1020.6
20260906140020 11 334 0.0 0.0 0.23 1.17 0.41 91 1020.6
20260906134535 12 304 0.0 0.0 0.00 0.94 0.18 90 1020.9
20260906133045 12 273 0.0 4.8 0.00 0.94 0.18 89 1020.4
20260906131507 12 243 0.0 0.0 0.00 0.97 0.18 90 1020.1
20260906130010 12 44 0.0 0.0 0.00 1.04 0.18 89 1019.9
20260906124516 12 330 0.0 0.0 0.00 1.09 0.18 89 1020.5
20260906123031 12 330 0.0 0.0 0.00 1.09 0.18 89 1020.6
20260906121529 12 327 0.0 0.0 0.00 1.09 0.18 89 1020.6
20260906120011 12 341 0.0 0.0 0.00 1.09 0.18 90 1020.3
20260906114512 12 319 0.0 0.0 0.00 1.09 0.18 90 1020.7
20260906113018 12 2 0.0 0.0 0.00 1.09 0.18 90 1020.4
20260906111531 12 262 0.0 0.0 0.00 1.09 0.18 90 1020.6
20260906110034 12 62 0.0 0.0 0.00 1.09 0.18 89 1019.9
20260906104510 12 66 0.0 0.0 0.00 1.09 0.18 88 1019.7
20260906103023 13 67 0.0 0.0 0.00 1.09 0.18 87 1019.5
20260906101531 12 68 0.0 0.0 0.00 1.09 0.18 90 1020.2
20260906100032 12 335 0.0 0.0 0.00 1.09 0.18 91 1020.6
20260906094534 12 58 0.0 0.0 0.00 1.09 0.18 90 1020.4
20260906093016 12 77 0.0 0.0 0.00 1.09 0.18 91 1020.5
20260906091528 12 57 0.0 0.0 0.03 1.09 0.18 91 1020.3
20260906090027 12 62 0.0 0.0 0.05 1.09 0.18 92 1020.2
20260906084531 12 54 0.0 0.0 0.08 1.09 0.18 92 1020.4
20260906083015 12 60 0.0 0.0 0.15 1.09 0.18 92 1020.8
20260906081520 12 316 0.0 0.0 0.13 1.07 0.15 92 1022.1
20260906080028 12 268 0.0 0.0 0.10 1.04 0.13 91 1022.0
20260906074504 12 330 0.0 0.0 0.08 1.02 0.10 90 1021.5
20260906073021 12 266 0.0 0.0 0.00 0.94 0.03 91 1022.5
20260906071517 12 76 0.0 0.0 0.03 0.94 0.03 90 1021.3
20260906070025 12 44 0.0 0.0 0.03 0.94 0.03 91 1021.5
20260906064531 12 287 0.0 0.0 0.05 0.94 0.03 91 1022.0
20260906063009 12 66 0.0 0.0 0.48 0.94 0.03 91 1021.5
20260906061518 12 301 0.0 0.0 0.46 0.91 0.00 91 1022.0
20260906060030 12 321 0.0 0.0 0.46 0.91 0.00 91 1022.1
20260906054526 12 310 0.0 0.0 0.43 0.89 0.89 89 1022.3
20260906053036 12 302 0.0 0.0 0.03 0.46 0.46 89 1023.0
20260906051513 12 313 0.0 0.0 0.05 0.46 0.46 89 1021.6
20260906050023 12 28 0.0 0.0 0.05 0.46 0.46 88 1022.1
20260906044524 13 324 0.0 0.0 0.05 0.46 0.46 88 1021.9
20260906043031 13 342 0.0 0.0 0.03 0.43 0.43 85 1021.6
20260906041532 13 359 0.0 0.0 0.03 0.41 0.41 85 1021.9
20260906040018 13 21 0.0 0.0 0.15 0.41 0.41 83 1021.0
20260906034527 13 345 0.0 0.0 0.18 0.41 0.41 82 1021.3
20260906033030 13 286 0.0 0.0 0.18 0.41 0.41 83 1021.3
20260906031533 13 102 0.0 0.0 0.15 0.38 0.38 83 1019.7
20260906030038 15 257 0.0 0.0 0.03 0.25 0.25 78 1022.6
20260906024521 16 334 0.0 0.0 0.00 0.23 0.23 68 1021.2
20260906023025 16 1 0.0 0.0 0.00 0.23 0.23 67 1020.0
20260906021532 16 322 0.0 0.0 0.00 0.23 0.23 65 1019.3
20260906020043 16 66 0.0 0.0 0.00 0.23 0.23 65 1019.6
20260906014522 17 56 0.0 0.0 0.00 0.23 0.23 63 1019.7
20260906013029 17 54 0.0 0.0 0.00 0.23 0.23 62 1019.7
20260906011506 17 52 0.0 0.0 0.00 0.23 0.23 60 1019.7
20260906010010 18 65 0.0 0.0 0.00 0.23 0.23 60 1019.5
20260906004518 18 49 0.0 0.0 0.00 0.23 0.23 58 1019.5
20260906003021 18 30 0.0 0.0 0.00 0.23 0.23 55 1019.4
20260906001502 19 311 0.0 0.0 0.00 0.23 0.23 54 1019.7
20260906000008 20 28 0.0 0.0 0.00 0.23 0.23 51 1019.8